Regional Weather Roundup
Issued by NWS Little Rock, AR

Home | Current Version | Previous Version | Text Only | Print | Product List | Glossary On
Versions: 1 2 3 4 5 6 7 8 9 10 11 12 13 14 15 16 17 18 19 20 21 22 23 24 25 26 27 28 29 30 31 32
000
ASUS44 KLZK 270205
RWRLZK

WEATHER ROUNDUP FOR ARKANSAS
NATIONAL WEATHER SERVICE LITTLE ROCK AR
900 PM CDT SUN MAR 26 2017

NOTE: "FAIR" INDICATES FEW OR NO CLOUDS BELOW 12,000 FEET WITH NO
SIGNIFICANT WEATHER AND/OR OBSTRUCTIONS TO VISIBILITY.

ARZ001-003-010-029-270300-
NORTHWEST ARKANSAS

CITY           SKY/WX    TMP DP  RH WIND       PRES   REMARKS
FAYETTEVILLE   CLOUDY    65  51  60 CALM      29.80F
FORT SMITH     CLOUDY    66  53  63 NE5       29.78S
HARRISON       CLOUDY    63  48  58 SE9       29.85F
BENTONVILLE    CLOUDY    64  48  55 E7        29.80S
ROGERS         LGT RAIN  63  51  65 E10       29.80F
SILOAM SPGS    CLOUDY    64  50  59 S7        29.80R THUNDER
HIGHFILL       CLOUDY    64  52  64 SE8       29.79F
SPRINGDALE     CLOUDY    64  52  63 SE7       29.80F
$$

ARZ004-005-016-270300-
NORTH CENTRAL ARKANSAS

CITY           SKY/WX    TMP DP  RH WIND       PRES   REMARKS
BATESVILLE     PTCLDY    63  50  63 SE6       29.91R
FLIPPIN        PTCLDY    64  46  52 E5        29.85R
MTN HOME       CLOUDY    62  49  62 S6        29.87S
$$

ARZ040-041-270300-
WEST CENTRAL ARKANSAS

CITY           SKY/WX    TMP DP  RH WIND       PRES   REMARKS
MENA           PTCLDY    68  52  56 CALM      29.81F
MOUNT IDA      PTCLDY    69  50  50 E3        29.81S
$$

ARZ009-017-025-026-028-270300-
NORTHEAST ARKANSAS

CITY           SKY/WX    TMP DP  RH WIND       PRES   REMARKS
CORNING        FAIR      61  55  82 E8        29.93S
JONESBORO      PTCLDY    60  54  80 E3        29.92S
WALNUT RIDGE   MOCLDY    63  54  72 SE8       29.92R
BLYTHEVILLE    CLOUDY    62  56  80 E5        29.95S
$$

ARZ022-023-033-042-044-270300-
CENTRAL ARKANSAS

CITY           SKY/WX    TMP DP  RH WIND       PRES   REMARKS
LITTLE ROCK    CLOUDY    65  55  70 E8        29.87F
N LITTLE ROCK    N/A     67  55  64 E6        29.89S
JACKSONVILLE   CLOUDY    66  56  69 E6        29.87S
CONWAY           N/A     68  54  60 E9        29.85S
SEARCY         MOCLDY    65  56  72 E6        29.91F
HOT SPRINGS    PTCLDY    66  52  60 E7        29.85S
RUSSELLVILLE   CLEAR     67  51  56 E6        29.83S
CLINTON        FAIR      57  55  94 CALM      29.88S
$$

ARZ036-270300-
EAST ARKANSAS

CITY           SKY/WX    TMP DP  RH WIND       PRES   REMARKS
WEST MEMPHIS   PTCLDY    64  57  78 CALM      29.93S
$$

ARZ050-053-066-070-073-270300-
SOUTHWEST ARKANSAS

CITY           SKY/WX    TMP DP  RH WIND       PRES   REMARKS
ARKADELPHIA    FAIR      68  59  73 CALM      29.84S
CAMDEN         CLOUDY    72  50  46 SE6       29.85F
TEXARKANA      MOCLDY    72  59  63 SE10      29.80F
EL DORADO      PTCLDY    69  55  60 SE3       29.86S
DE QUEEN       CLOUDY    73  54  51 SE8       29.77R
$$

ARZ056-057-069-270300-
SOUTHEAST ARKANSAS

CITY           SKY/WX    TMP DP  RH WIND       PRES   REMARKS
PINE BLUFF     CLOUDY    66  58  75 SE9       29.88S
STUTTGART      MOCLDY    70  50  49 E8        29.90S
MONTICELLO     CLOUDY    71  55  56 SE3       29.89S

$$






USA.gov is the U.S. government's official web portal to all federal, state and local government web resources and services.